Quick links : Home Page : Contact Us : Index : Site Map : Search Site : Ephemerides


(3753) Cruithne

Orbital Elements

The following orbital elements are taken from MPO124243
  (3753) Cruithne
Epoch 2007 Oct. 27.0 TT = JDT 2454400.5                 MPC
M 296.95894              (2000.0)            P               Q
n   0.98897797     Peri.   43.74497     -0.95193211     -0.13859612
a   0.9977268      Node   126.28961     +0.08778246     -0.97781095
e   0.5147751      Incl.   19.80945     +0.29346123     -0.15708871
P   1.00           H   15.1           G   0.15           U   3
From 434 observations at 25 oppositions, 1973-2007, mean residual 0".60.
An explanation of the orbital elements is available.

These orbital elements are also available in forms suitable for loading into a number of popular planetarium-type software programs.


Ephemeris

The following ephemeris is at intervals of five days. A daily ephemeris covering the same time interval is also available.

Personalized ephemerides for this (and other) objects may be generated using the Minor Planet & Comet Ephemeris Service.

Date    TT    R. A. (2000) Decl.     Delta      r     Elong.  Phase     V
2008 08 22    04 07.47   -05 58.2    0.974    1.412    90.6    45.7    17.5
2008 08 27    04 19.89   -07 05.0    0.922    1.393    92.1    46.5    17.4
2008 09 01    04 32.68   -08 21.5    0.870    1.371    93.4    47.3    17.3
2008 09 06    04 45.93   -09 48.4    0.820    1.348    94.5    48.2    17.1
2008 09 11    04 59.75   -11 26.0    0.771    1.323    95.3    49.2    17.0
2008 09 16    05 14.29   -13 15.2    0.723    1.297    95.8    50.5    16.8
2008 09 21    05 29.76   -15 16.4    0.677    1.268    95.9    52.0    16.7
2008 09 26    05 46.41   -17 30.1    0.633    1.237    95.6    53.7    16.5
2008 10 01    06 04.55   -19 56.1    0.592    1.205    94.8    55.9    16.4
2008 10 06    06 24.64   -22 33.7    0.552    1.170    93.4    58.5    16.3
2008 10 11    06 47.24   -25 20.8    0.516    1.133    91.2    61.7    16.1
2008 10 16    07 13.12   -28 13.5    0.483    1.095    88.3    65.5    16.0
2008 10 21    07 43.14   -31 05.3    0.454    1.054    84.6    70.1    16.0
2008 10 26    08 18.19   -33 44.8    0.430    1.011    79.9    75.4    15.9
2008 10 31    08 58.92   -35 55.3    0.411    0.967    74.4    81.5    15.9
2008 11 05    09 45.14   -37 15.1    0.399    0.920    68.1    88.2    16.0
2008 11 10    10 35.36   -37 23.8    0.396    0.872    61.2    95.3    16.2
2008 11 15    11 26.68   -36 11.1    0.403    0.822    54.3   102.2    16.4
2008 11 20    12 15.85   -33 44.8    0.421    0.771    47.7   108.4    16.7
2008 11 25    13 00.65   -30 28.7    0.451    0.719    42.1   113.0    17.0
2008 11 30    13 40.40   -26 53.1    0.494    0.668    37.7   115.3    17.2
2008 12 05    14 15.65   -23 24.9    0.551    0.618    34.7   114.8    17.2
2008 12 10    14 47.53   -20 23.4    0.621    0.572    32.8   111.2    17.1
2008 12 15    15 17.30   -17 59.5    0.704    0.533    31.6   104.7    16.8
2008 12 20    15 46.04   -16 17.4    0.798    0.503    30.6    95.6    16.5
 
2009 03 30    22 37.53   -10 00.6    1.960    1.234    32.1    25.5    18.2
2009 04 04    22 50.52   -09 22.2    1.966    1.265    33.9    26.1    18.3
2009 04 09    23 03.18   -08 43.8    1.968    1.294    35.7    26.8    18.3
2009 04 14    23 15.56   -08 05.6    1.966    1.321    37.5    27.6    18.4
2009 04 19    23 27.69   -07 27.9    1.961    1.346    39.5    28.3    18.5
2009 04 24    23 39.59   -06 50.9    1.951    1.369    41.4    29.1    18.5
2009 04 29    23 51.30   -06 14.9    1.938    1.391    43.4    29.8    18.5
2009 05 04    00 02.82   -05 40.0    1.921    1.410    45.4    30.6    18.6
2009 05 09    00 14.20   -05 06.4    1.902    1.428    47.5    31.4    18.6
2009 05 14    00 25.45   -04 34.4    1.878    1.444    49.5    32.2    18.6
2009 05 19    00 36.60   -04 04.2    1.852    1.458    51.6    32.9    18.6
2009 05 24    00 47.65   -03 35.9    1.823    1.471    53.7    33.7    18.6
2009 05 29    00 58.64   -03 09.8    1.791    1.482    55.8    34.5    18.6
2009 06 03    01 09.56   -02 46.2    1.756    1.491    58.0    35.2    18.6
2009 06 08    01 20.45   -02 25.1    1.719    1.498    60.1    36.0    18.6
2009 06 13    01 31.31   -02 06.9    1.679    1.504    62.2    36.7    18.6
2009 06 18    01 42.17   -01 51.7    1.638    1.508    64.4    37.4    18.6
2009 06 23    01 53.03   -01 39.9    1.594    1.511    66.5    38.1    18.5
2009 06 28    02 03.91   -01 31.7    1.549    1.511    68.6    38.8    18.5
2009 07 03    02 14.81   -01 27.5    1.501    1.511    70.8    39.5    18.4
2009 07 08    02 25.76   -01 27.4    1.453    1.508    72.9    40.1    18.4
2009 07 13    02 36.78   -01 31.8    1.403    1.504    74.9    40.8    18.3
2009 07 18    02 47.88   -01 41.1    1.352    1.498    77.0    41.4    18.3
2009 07 23    02 59.07   -01 55.7    1.300    1.490    79.0    42.0    18.2
2009 07 28    03 10.37   -02 16.0    1.248    1.481    81.0    42.6    18.1
2009 08 02    03 21.81   -02 42.3    1.195    1.470    83.0    43.3    18.0
2009 08 07    03 33.40   -03 15.1    1.142    1.457    84.8    43.9    17.9
2009 08 12    03 45.20   -03 55.0    1.089    1.443    86.6    44.5    17.8
2009 08 17    03 57.23   -04 42.4    1.035    1.426    88.3    45.2    17.7
2009 08 22    04 09.53   -05 38.0    0.983    1.408    89.9    45.9    17.6
2009 08 27    04 22.16   -06 42.3    0.930    1.389    91.3    46.7    17.4
2009 09 01    04 35.18   -07 55.8    0.879    1.367    92.5    47.5    17.3
2009 09 06    04 48.71   -09 19.3    0.828    1.344    93.5    48.5    17.2
2009 09 11    05 02.86   -10 53.2    0.779    1.318    94.3    49.6    17.0
2009 09 16    05 17.78   -12 38.2    0.731    1.291    94.7    50.9    16.9
2009 09 21    05 33.66   -14 34.9    0.685    1.262    94.8    52.4    16.7
2009 09 26    05 50.75   -16 43.1    0.641    1.231    94.4    54.3    16.6

Back to Observable Critical-List Minor Planets

MPC

Valid HTML 4.01!